Flag for U.S.A. Weather past 2 weeks in Brownsville, Texas, U.S.A.

74 °F

Mostly cloudy.

Feels Like: 70 °F
Forecast: 73 / 87 °F
Wind: 7 mph from Northwest

Location: Brownsville / South Padre Island International Airport

Current Time: Oct 10, 2015 at 2:32:00 AM

Latest Report: Oct 10, 2015 at 1:53 AM

Visibility: 10 mi

Pressure: 30.08 "Hg

Humidity: 97%

Dew point: 73 °F

Location of BrownsvilleLocation

Historic Weather in Brownsville — Graph


Brownsville temperature yesterday

Maximum temperature yesterday: 89 °F (at 2:53 PM)
Minimum temperature yesterday: 73 °F (at 4:57 PM)
Average temperature yesterday: 77 °F

Past Weeks' High & Low Weather Summary

High91 °F (Oct 1, 1:53 PM)100% (Sep 28, 2:53 AM)30.09 "Hg (Sep 28, 2:53 AM)
Low63 °F (Oct 4, 4:53 AM)44% (Oct 1, 1:53 PM)29.75 "Hg (Sep 28, 4:53 PM)
Average77 °F79%29.92 "Hg
* Reported Sep 25 12:53 AM — Oct 10 12:53 AM, Brownsville, Weather by CustomWeather, © 2015

Note: Actual official high and low records may vary slightly from our data, if they occured in-between our weather recording intervals... More about our weather records


Brownsville weather history for previous 24 hours

Time TempWeatherWind HumidityBarometerVisibility
12:53 AM
Sat, Oct 10
74 °FMostly cloudy.9 mph97%30.09 "Hg10 mi
11:53 PM
Fri, Oct 9
75 °FLight rain. Mostly cloudy.6 mph94%30.09 "Hg8 mi
10:53 PM74 °FPartly cloudy.10 mph97%30.08 "Hg10 mi
9:53 PM74 °FLight rain. Overcast.7 mph97%30.08 "Hg8 mi
8:53 PM75 °FPassing clouds.6 mph100%30.06 "Hg10 mi
7:53 PM73 °FPassing clouds.8 mph100%30.02 "Hg10 mi
6:53 PM73 °FSunny.No wind100%30.01 "Hg10 mi
6:00 PM74 °FLight rain. Mostly cloudy.6 mph100%30.02 "Hg7 mi
4:57 PM73 °FHeavy rain. Fog.5 mph97%30.04 "Hg1 mi
3:53 PM81 °FLight rain. Mostly cloudy.8 mph85%29.99 "Hg10 mi
2:53 PM89 °FPassing clouds.8 mph63%29.99 "Hg10 mi
1:53 PM82 °FLight rain. Mostly cloudy.8 mph77%30.00 "Hg10 mi
12:53 PM83 °FPartly sunny.10 mph79%30.02 "Hg10 mi
11:53 AM82 °FLight rain. Cloudy.6 mph79%30.04 "Hg9 mi
10:53 AM86 °FPassing clouds.5 mph65%30.04 "Hg10 mi
9:53 AM82 °FPartly sunny.No wind77%30.03 "Hg10 mi
8:53 AM78 °FSunny.No wind87%30.01 "Hg10 mi
7:53 AM76 °FPassing clouds.5 mph91%29.98 "Hg10 mi
6:53 AM75 °FPassing clouds.3 mph90%29.96 "Hg10 mi
5:53 AM74 °FPassing clouds.3 mph94%29.95 "Hg10 mi
4:53 AM74 °FPassing clouds.No wind94%29.94 "Hg10 mi
3:53 AM75 °FClear.No wind90%29.93 "Hg10 mi
2:53 AM75 °FClear.7 mph88%29.93 "Hg10 mi
Weather by CustomWeather, © 2015

See weather overviewHow to use our weather pages